Crane Lake, MN

10:23 AM CST on December 13, 2019 (GMT -0600)
Crane Lake

Weather History for KCDD - June, 2019

Change the Weather History Date:

Friday, June 14, 2019

  Actual Average Record
Temperature  
Mean Temperature 60 °F -  
Max Temperature 71 °F 69 °F 87 °F (2007)
Min Temperature 48 °F 47 °F 37 °F (1997)
Degree Days  
Heating Degree Days 6    
Growing Degree Days 10 (Base 50)    
Moisture  
Dew Point 48 °F    
Average Humidity 66    
Maximum Humidity 100    
Minimum Humidity 43    
Precipitation  
Precipitation 0.00 in - - ()
Sea Level Pressure  
Sea Level Pressure 29.69 in    
Wind  
Wind Speed 3 mph (SW)    
Max Wind Speed 8 mph    
Max Gust Speed -    
Visibility 10 miles    
Events Rain    
Averages and records for this station are not official NWS values.
T = Trace of Precipitation, MM = Missing Value Source: NWS Daily Summary

Daily Weather History Graph

Daily Weather History Graph

Search for Another Location

Airport or City:

Astronomy

Jun. 14, 2019 Rise Set
Actual Time 5:08 AM CDT 9:11 PM CDT
Civil Twilight 4:27 AM CDT 9:53 PM CDT
Nautical Twilight 3:29 AM CDT 10:51 PM CDT
Astronomical Twilight 1:47 AM CDT 12:35 AM CDT
Moon 6:21 PM CDT (6/14) 3:43 AM CDT (6/14)
Length of Visible Light 17h 26m
Length of Day
16h 03m
Waxing Gibbous, 92% of the Moon is Illuminated
Jun 14
Waxing Gibbous
Jun 17
Full
Jun 25
Last Quarter
Jul 2
New
Jul 9
First Quarter

Hourly Weather History & Observations

Time (CDT) Temp. Dew Point Humidity Pressure Visibility Wind Dir Wind Speed Gust Speed Precip Events Conditions
12:30 AM 53.6 °F 39.2 °F 58% 29.81 in 10.0 mi South 3.5 mph - N/A   Clear
12:50 AM 51.8 °F 39.2 °F 62% 29.81 in 10.0 mi South 3.5 mph - N/A   Clear
12:55 AM 51.8 °F 39.2 °F 62% 29.81 in 10.0 mi Calm Calm - N/A   Clear
1:10 AM 51.8 °F 39.2 °F 62% 29.80 in 10.0 mi South 3.5 mph - N/A   Clear
1:55 AM 53.6 °F 39.2 °F 58% 29.78 in 10.0 mi South 4.6 mph - N/A   Scattered Clouds
2:10 AM 55.4 °F 37.4 °F 51% 29.77 in 10.0 mi South 5.8 mph - N/A   Scattered Clouds
2:55 AM 55.4 °F 37.4 °F 51% 29.77 in 10.0 mi Calm Calm - N/A   Mostly Cloudy
3:55 AM 55.4 °F 37.4 °F 51% 29.75 in 10.0 mi South 3.5 mph - N/A   Mostly Cloudy
4:50 AM 55.4 °F 44.6 °F 67% 29.75 in 10.0 mi South 6.9 mph - N/A Rain Rain
4:55 AM 53.6 °F 44.6 °F 72% 29.74 in 10.0 mi South 6.9 mph - N/A Rain Light Rain
5:31 AM 50.0 °F 48.2 °F 94% 29.73 in 10.0 mi Calm Calm - N/A Rain Light Rain
5:55 AM 48.2 °F 48.2 °F 100% 29.73 in 10.0 mi Calm Calm - N/A Rain Light Rain
6:51 AM 50.0 °F 48.2 °F 94% 29.71 in 10.0 mi Calm Calm - N/A   Light Drizzle
6:55 AM 50.0 °F 48.2 °F 94% 29.72 in 10.0 mi Calm Calm - N/A   Light Drizzle
7:50 AM 53.6 °F 51.8 °F 94% 29.69 in 10.0 mi SSE 3.5 mph - N/A   Clear
7:55 AM 53.6 °F 51.8 °F 94% 29.69 in 10.0 mi SSE 3.5 mph - N/A   Clear
8:50 AM 55.4 °F 51.8 °F 88% 29.68 in 10.0 mi South 4.6 mph - N/A   Overcast
8:55 AM 55.4 °F 51.8 °F 88% 29.68 in 10.0 mi South 5.8 mph - N/A   Overcast
9:55 AM 59.0 °F 53.6 °F 82% 29.66 in 10.0 mi Calm Calm - N/A   Clear
10:30 AM 62.6 °F 55.4 °F 77% 29.65 in 10.0 mi South 4.6 mph - N/A   Clear
10:55 AM 62.6 °F 55.4 °F 77% 29.65 in 10.0 mi North 5.8 mph - N/A   Scattered Clouds
11:10 AM 64.4 °F 55.4 °F 73% 29.64 in 10.0 mi WNW 3.5 mph - N/A   Scattered Clouds
11:55 AM 64.4 °F 55.4 °F 73% 29.64 in 10.0 mi Calm Calm - N/A   Scattered Clouds
12:30 PM 66.2 °F 55.4 °F 68% 29.63 in 10.0 mi Calm Calm - N/A   Mostly Cloudy
12:50 PM 68.0 °F 55.4 °F 64% 29.62 in 10.0 mi Calm Calm - N/A   Mostly Cloudy
12:55 PM 66.2 °F 55.4 °F 68% 29.62 in 10.0 mi Calm Calm - N/A   Mostly Cloudy
1:50 PM 68.0 °F 55.4 °F 64% 29.62 in 10.0 mi NNE 3.5 mph - N/A   Mostly Cloudy
1:55 PM 68.0 °F 55.4 °F 64% 29.62 in 10.0 mi Calm Calm - N/A   Mostly Cloudy
2:50 PM 69.8 °F 53.6 °F 56% 29.63 in 10.0 mi WNW 4.6 mph - N/A   Scattered Clouds
2:55 PM 71.6 °F 53.6 °F 53% 29.62 in 10.0 mi NW 4.6 mph - N/A   Scattered Clouds
3:30 PM 71.6 °F 51.8 °F 50% 29.62 in 10.0 mi North 6.9 mph - N/A   Scattered Clouds
3:55 PM 71.6 °F 50.0 °F 46% 29.62 in 10.0 mi NNW 6.9 mph - N/A   Scattered Clouds
4:55 PM 71.6 °F 48.2 °F 43% 29.63 in 10.0 mi NNW 6.9 mph - N/A   Mostly Cloudy
5:55 PM 71.6 °F 48.2 °F 43% 29.64 in 10.0 mi North 4.6 mph - N/A   Overcast
6:50 PM 71.6 °F 48.2 °F 43% 29.64 in 10.0 mi North 8.1 mph - N/A   Scattered Clouds
6:55 PM 69.8 °F 48.2 °F 46% 29.64 in 10.0 mi North 6.9 mph - N/A   Scattered Clouds
7:55 PM 64.4 °F 46.4 °F 52% 29.68 in 10.0 mi NE 8.1 mph - N/A   Clear
8:50 PM 60.8 °F 42.8 °F 52% 29.71 in 10.0 mi NNE 4.6 mph - N/A   Clear
8:55 PM 60.8 °F 42.8 °F 52% 29.71 in 10.0 mi Calm Calm - N/A   Clear